Marshall, MI

8:38 AM EST on February 24, 2017 (GMT -0500)
Brooks

Weather History for KRMY - January, 2014

Change the Weather History Date:

Wednesday, January 29, 2014

  Actual Average (KBTL) Record (KBTL)
Temperature  
Mean Temperature 5 °F -  
Max Temperature 14 °F 29 °F 58 °F (2013)
Min Temperature -4 °F 16 °F -1 °F (2014)
Degree Days  
Heating Degree Days 60    
Moisture  
Dew Point -3 °F    
Average Humidity 67    
Maximum Humidity 77    
Minimum Humidity 49    
Precipitation  
Precipitation 0.00 in - - ()
Sea Level Pressure  
Sea Level Pressure 30.10 in    
Wind  
Wind Speed 13 mph (SW)    
Max Wind Speed 21 mph    
Max Gust Speed 28 mph    
Visibility 10 miles    
Events Snow    
Averages and records for this station are not official NWS values.
T = Trace of Precipitation, MM = Missing Value Source: NWS Daily Summary

Daily Weather History Graph

Daily Weather History Graph

Search for Another Location

Airport or City:

Trip Planner

Search our weather history database for the weather conditions in past years. The results will help you decide how hot, cold, wet, or windy it might be!

Date:

Astronomy

Jan. 29, 2014 Rise Set
Actual Time 7:56 AM EST 5:50 PM EST
Civil Twilight 7:26 AM EST 6:20 PM EST
Nautical Twilight 6:52 AM EST 6:54 PM EST
Astronomical Twilight 6:19 AM EST 7:27 PM EST
Moon 6:32 AM EST (1/29) 4:49 PM EST (1/29)
Length of Visible Light 10h 54m
Length of Day
9h 54m
Waning Crescent, 2% of the Moon is Illuminated
Jan 29
Waning Crescent
Jan 30
New
Feb 6
First Quarter
Feb 14
Full
Feb 22
Last Quarter

Hourly Weather History & Observations

Time (EST) Temp. Windchill Dew Point Humidity Pressure Visibility Wind Dir Wind Speed Gust Speed Precip Events Conditions
12:13 AM -4.0 °F -23.0 °F -10.3 °F 74% 30.13 in 10.0 mi SW 12.7 mph - N/A   Clear
12:34 AM -3.8 °F -23.5 °F -9.9 °F 75% 30.13 in 10.0 mi SW 13.8 mph 18.4 mph N/A   Clear
12:54 AM -3.5 °F -19.5 °F -9.4 °F 76% 30.12 in 10.0 mi SW 9.2 mph - N/A   Clear
1:13 AM -3.1 °F -21.8 °F -9.0 °F 76% 30.11 in 10.0 mi SW 12.7 mph 21.9 mph N/A   Clear
1:34 AM -2.6 °F -22.6 °F -8.5 °F 76% 30.10 in 10.0 mi SW 15.0 mph 20.7 mph N/A   Clear
1:54 AM -2.6 °F -21.9 °F -8.5 °F 76% 30.10 in 10.0 mi SW 13.8 mph 19.6 mph N/A   Clear
2:13 AM -2.4 °F -20.1 °F -8.1 °F 76% 30.09 in 10.0 mi SW 11.5 mph - N/A   Clear
2:34 AM -2.0 °F -21.2 °F -8.0 °F 76% 30.09 in 10.0 mi SW 13.8 mph 18.4 mph N/A Snow Light Snow
2:54 AM -1.5 °F -21.9 °F -7.4 °F 76% 30.09 in 10.0 mi SW 16.1 mph 20.7 mph N/A   Clear
3:13 AM -0.8 °F -21.0 °F -6.7 °F 76% 30.09 in 10.0 mi SW 16.1 mph 20.7 mph N/A   Mostly Cloudy
3:34 AM -0.4 °F -21.2 °F -6.2 °F 77% 30.09 in 10.0 mi SW 17.3 mph 20.7 mph N/A   Overcast
3:53 AM 0.3 °F -19.0 °F -5.4 °F 77% 30.09 in 10.0 mi SW 15.0 mph 21.9 mph N/A   Overcast
4:13 AM 0.9 °F -17.6 °F -5.1 °F 76% 30.08 in 10.0 mi SW 13.8 mph 23.0 mph N/A   Overcast
4:34 AM 1.0 °F -18.7 °F -5.1 °F 75% 30.07 in 10.0 mi SW 16.1 mph 21.9 mph N/A   Overcast
4:53 AM 0.9 °F -18.3 °F -5.4 °F 75% 30.07 in 10.0 mi SW 15.0 mph 20.7 mph N/A   Overcast
5:13 AM 0.3 °F -17.5 °F -5.8 °F 75% 30.07 in 10.0 mi SW 12.7 mph 21.9 mph N/A   Mostly Cloudy
5:34 AM -0.4 °F -19.9 °F -6.3 °F 76% 30.07 in 10.0 mi SW 15.0 mph 23.0 mph N/A   Clear
5:53 AM -0.4 °F -18.4 °F -6.3 °F 76% 30.07 in 10.0 mi SW 12.7 mph 18.4 mph N/A   Mostly Cloudy
6:14 AM -0.2 °F -18.9 °F -6.2 °F 76% 30.07 in 10.0 mi SW 13.8 mph 19.6 mph N/A   Overcast
6:34 AM -0.4 °F -19.9 °F -6.3 °F 76% 30.07 in 10.0 mi SW 15.0 mph 19.6 mph N/A   Overcast
6:53 AM -0.4 °F -19.2 °F -6.3 °F 76% 30.07 in 10.0 mi SW 13.8 mph 18.4 mph N/A   Overcast
7:14 AM -0.6 °F -18.6 °F -6.7 °F 75% 30.07 in 10.0 mi SW 12.7 mph 19.6 mph N/A   Mostly Cloudy
7:34 AM -0.4 °F -18.4 °F -6.5 °F 75% 30.07 in 10.0 mi SW 12.7 mph 18.4 mph N/A   Mostly Cloudy
7:53 AM -0.4 °F -19.2 °F -6.3 °F 76% 30.08 in 10.0 mi SW 13.8 mph 18.4 mph N/A   Mostly Cloudy
8:14 AM 0.1 °F -19.8 °F -6.2 °F 75% 30.08 in 10.0 mi SW 16.1 mph 20.7 mph N/A   Scattered Clouds
8:34 AM 1.0 °F -18.0 °F -5.8 °F 73% 30.08 in 10.0 mi WSW 15.0 mph 24.2 mph N/A   Scattered Clouds
8:53 AM 1.4 °F -18.2 °F -5.4 °F 73% 30.09 in 10.0 mi SW 16.1 mph 20.7 mph N/A   Mostly Cloudy
9:14 AM 2.7 °F -15.3 °F -4.9 °F 71% 30.09 in 10.0 mi SW 13.8 mph 21.9 mph N/A   Overcast
9:33 AM 3.2 °F -14.6 °F -4.4 °F 71% 30.09 in 10.0 mi WSW 13.8 mph 20.7 mph N/A   Scattered Clouds
9:54 AM 4.5 °F -13.0 °F -3.8 °F 69% 30.09 in 10.0 mi SW 13.8 mph 23.0 mph N/A   Clear
10:14 AM 4.6 °F -12.8 °F -3.8 °F 68% 30.09 in 10.0 mi WSW 13.8 mph 21.9 mph N/A   Mostly Cloudy
10:33 AM 5.0 °F -13.0 °F -3.5 °F 68% 30.09 in 10.0 mi WSW 15.0 mph 23.0 mph N/A   Mostly Cloudy
10:54 AM 6.4 °F -10.5 °F -2.7 °F 66% 30.09 in 10.0 mi WSW 13.8 mph 19.6 mph N/A   Scattered Clouds
11:14 AM 7.7 °F -8.2 °F -2.2 °F 64% 30.10 in 10.0 mi WSW 12.7 mph - N/A   Clear
11:33 AM 9.9 °F -8.4 °F -0.0 °F 64% 30.10 in 10.0 mi WSW 18.4 mph - N/A   Scattered Clouds
11:54 AM 10.8 °F -7.7 °F 1.4 °F 66% 30.11 in 5.0 mi WSW 19.6 mph 26.5 mph N/A   Haze
12:14 PM 11.1 °F -6.7 °F 1.6 °F 66% 30.10 in 7.0 mi WSW 18.4 mph 27.6 mph N/A   Scattered Clouds
12:34 PM 11.8 °F -3.6 °F 1.4 °F 63% 30.10 in 10.0 mi WSW 13.8 mph 26.5 mph N/A   Scattered Clouds
12:54 PM 11.8 °F -5.8 °F 1.8 °F 64% 30.10 in 10.0 mi WSW 18.4 mph 25.3 mph N/A   Clear
1:13 PM 12.4 °F -6.0 °F 1.9 °F 63% 30.09 in 10.0 mi WSW 20.7 mph 24.2 mph N/A   Scattered Clouds
1:34 PM 13.1 °F -4.2 °F 2.3 °F 62% 30.09 in 10.0 mi WSW 18.4 mph 24.2 mph N/A   Mostly Cloudy
1:54 PM 13.6 °F -3.5 °F 2.7 °F 62% 30.09 in 10.0 mi WSW 18.4 mph 25.3 mph N/A   Mostly Cloudy
2:13 PM 14.2 °F 0.7 °F 2.8 °F 61% 30.08 in 10.0 mi WSW 11.5 mph 20.7 mph N/A   Scattered Clouds
2:34 PM 14.7 °F -1.1 °F 3.0 °F 60% 30.09 in 10.0 mi SW 16.1 mph 23.0 mph N/A   Clear
2:54 PM 14.5 °F -2.7 °F 2.3 °F 58% 30.08 in 10.0 mi SW 19.6 mph 24.2 mph N/A   Clear
3:13 PM 14.5 °F -0.2 °F 2.5 °F 59% 30.09 in 10.0 mi WSW 13.8 mph 24.2 mph N/A   Clear
3:34 PM 14.7 °F -1.6 °F 2.3 °F 58% 30.09 in 10.0 mi SW 17.3 mph 25.3 mph N/A   Clear
3:54 PM 14.7 °F -1.6 °F 2.3 °F 58% 30.11 in 10.0 mi WSW 17.3 mph - N/A   Clear
4:14 PM 14.5 °F -1.8 °F 1.2 °F 56% 30.11 in 10.0 mi WSW 17.3 mph 26.5 mph N/A   Clear
4:34 PM 14.7 °F 0.1 °F 0.1 °F 53% 30.11 in 10.0 mi WSW 13.8 mph 23.0 mph N/A   Clear
4:53 PM 14.5 °F 1.9 °F -0.4 °F 52% 30.11 in 10.0 mi WSW 10.4 mph 18.4 mph N/A   Clear
5:14 PM 14.5 °F 3.6 °F -1.3 °F 50% 30.12 in 10.0 mi WSW 8.1 mph - N/A   Clear
5:34 PM 14.0 °F 2.0 °F -2.2 °F 49% 30.12 in 10.0 mi SW 9.2 mph 16.1 mph N/A   Clear
5:53 PM 12.9 °F -0.2 °F -2.6 °F 50% 30.12 in 10.0 mi SW 10.4 mph - N/A   Clear
6:14 PM 12.0 °F 2.7 °F -3.1 °F 51% 30.13 in 10.0 mi SSW 5.8 mph - N/A   Clear
6:34 PM 12.0 °F -0.4 °F -2.9 °F 51% 30.11 in 10.0 mi SSW 9.2 mph - N/A   Clear
6:53 PM 11.8 °F -0.7 °F -2.7 °F 52% 30.11 in 10.0 mi SSW 9.2 mph - N/A   Clear
7:14 PM 11.5 °F 5.3 °F -2.9 °F 52% 30.12 in 10.0 mi SSW 3.5 mph - N/A   Clear
7:34 PM 10.6 °F 2.5 °F -2.6 °F 56% 30.13 in 10.0 mi SSW 4.6 mph - N/A   Clear
7:53 PM 10.0 °F 3.6 °F -2.2 °F 58% 30.13 in 10.0 mi South 3.5 mph - N/A   Clear
8:14 PM 8.8 °F 0.4 °F -2.6 °F 60% 30.13 in 10.0 mi South 4.6 mph - N/A   Clear
8:34 PM 7.7 °F -2.4 °F -2.6 °F 63% 30.13 in 10.0 mi SSE 5.8 mph - N/A   Clear
8:53 PM 8.1 °F -0.5 °F -2.2 °F 63% 30.12 in 10.0 mi SSE 4.6 mph - N/A   Clear
9:14 PM 8.8 °F -2.4 °F -1.1 °F 64% 30.11 in 10.0 mi South 6.9 mph - N/A   Clear
9:34 PM 7.9 °F -0.7 °F -1.7 °F 65% 30.10 in 10.0 mi SSE 4.6 mph - N/A   Clear
9:53 PM 7.5 °F 0.8 °F -1.7 °F 66% 30.11 in 10.0 mi SSE 3.5 mph - N/A   Clear
10:14 PM 7.2 °F 0.3 °F -1.5 °F 68% 30.11 in 10.0 mi South 3.5 mph - N/A   Clear
10:34 PM 6.3 °F -0.7 °F -2.0 °F 69% 30.10 in 10.0 mi South 3.5 mph - N/A   Clear
10:53 PM 6.8 °F -2.0 °F -1.7 °F 68% 30.09 in 10.0 mi South 4.6 mph - N/A   Clear
11:14 PM 8.6 °F -2.6 °F -0.4 °F 67% 30.09 in 10.0 mi South 6.9 mph - N/A   Clear
11:34 PM 9.3 °F -3.8 °F -0.2 °F 65% 30.08 in 10.0 mi South 9.2 mph - N/A   Clear
11:53 PM 9.7 °F -2.4 °F 0.1 °F 65% 30.08 in 10.0 mi South 8.1 mph - N/A   Clear